OK1VCF-8 Weather Reports


time (UTC)temp
C
wind
direction
speed
KPH
gust
KPH
rain 1hr
cm
rain 24hr
cm
rain mn
cm
humidity
%
barometer
mb
20260508135834 15 0 0.0 0.0 0.00 0.00 0.00 56 1019.4
20260508135114 16 0 0.0 0.0 0.00 0.00 0.00 56 1019.4
20260508134356 16 0 0.0 0.0 0.00 0.00 0.00 56 1019.4
20260508133636 15 0 0.0 0.0 0.00 0.00 0.00 59 1019.3
20260508132916 15 0 0.0 0.0 0.00 0.00 0.00 60 1019.4
20260508132158 15 0 0.0 0.0 0.00 0.00 0.00 58 1020.0
20260508131153 15 0 0.0 0.0 0.00 0.00 0.00 56 1019.5
20260508130433 15 0 0.0 0.0 0.00 0.00 0.00 56 1019.6
20260508125650 15 0 0.0 0.0 0.00 0.00 0.00 57 1019.5
20260508124855 16 0 0.0 0.0 0.00 0.00 0.00 56 1019.5
20260508124044 16 0 0.0 0.0 0.00 0.00 0.00 56 1019.4
20260508123223 16 0 0.0 0.0 0.00 0.00 0.00 56 1019.4
20260508122408 15 0 0.0 0.0 0.00 0.00 0.00 56 1019.4
20260508121544 15 0 0.0 0.0 0.00 0.00 0.00 56 1019.4
20260508120724 16 0 0.0 0.0 0.00 0.00 0.00 56 1019.4
20260508114347 15 0 0.0 0.0 0.00 0.00 0.00 58 1019.5
20260508113549 15 0 0.0 0.0 0.00 0.00 0.00 60 1019.5
20260508112811 15 0 0.0 0.0 0.00 0.00 0.00 60 1019.6
20260508112043 15 0 0.0 0.0 0.00 0.00 0.00 60 1019.6
20260508111035 15 0 0.0 0.0 0.00 0.00 0.00 59 1019.6
20260508110316 15 0 0.0 0.0 0.00 0.00 0.00 56 1019.6
20260508105557 15 0 0.0 0.0 0.00 0.00 0.00 59 1019.6
20260508104836 15 0 0.0 0.0 0.00 0.00 0.00 60 1019.6
20260508104115 15 0 0.0 0.0 0.00 0.00 0.00 60 1019.5
20260508103352 15 0 0.0 0.0 0.00 0.00 0.00 57 1019.5
20260508102632 15 0 0.0 0.0 0.00 0.00 0.00 58 1019.6
20260508100447 15 0 0.0 0.0 0.00 0.00 0.00 59 1019.8
20260508095726 14 0 0.0 0.0 0.00 0.00 0.00 62 1019.6
20260508095006 15 0 0.0 0.0 0.00 0.00 0.00 62 1019.7
20260508094246 14 0 0.0 0.0 0.00 0.00 0.00 63 1019.8
20260508093526 14 0 0.0 0.0 0.00 0.00 0.00 63 1019.8
20260508092807 14 0 0.0 0.0 0.00 0.00 0.00 64 1019.8
20260508091802 13 0 0.0 0.0 0.00 0.00 0.00 66 1019.8
20260508091043 13 0 0.0 0.0 0.00 0.00 0.00 68 1019.8
20260508090322 13 0 0.0 0.0 0.00 0.00 0.00 66 1019.8
20260508085602 14 0 0.0 0.0 0.00 0.00 0.00 63 1019.7
20260508084844 14 0 0.0 0.0 0.00 0.00 0.00 63 1019.8
20260508084124 14 0 0.0 0.0 0.00 0.00 0.00 62 1019.7
20260508083404 15 0 0.0 0.0 0.00 0.00 0.00 63 1019.8
20260508082643 14 0 0.0 0.0 0.00 0.00 0.00 65 1019.6
20260508081923 13 0 0.0 0.0 0.00 0.00 0.00 66 1019.6
20260508081202 13 0 0.0 0.0 0.00 0.00 0.00 66 1019.6
20260508080440 13 0 0.0 0.0 0.00 0.00 0.00 66 1019.6
20260508075718 13 0 0.0 0.0 0.00 0.00 0.00 68 1019.6
20260508074959 13 0 0.0 0.0 0.00 0.00 0.00 67 1019.6
20260508074239 13 0 0.0 0.0 0.00 0.00 0.00 68 1019.5
20260508073518 12 0 0.0 0.0 0.00 0.00 0.00 70 1019.5
20260508072513 12 0 0.0 0.0 0.00 0.00 0.00 70 1019.4
20260508071754 12 0 0.0 0.0 0.00 0.00 0.00 68 1019.4
20260508065540 12 0 0.0 0.0 0.00 0.00 0.00 71 1019.2
20260508064802 12 0 0.0 0.0 0.00 0.00 0.00 72 1019.2
20260508064025 11 0 0.0 0.0 0.00 0.00 0.00 72 1019.1
20260508063244 11 0 0.0 0.0 0.00 0.00 0.00 74 1019.0
20260508062504 11 0 0.0 0.0 0.00 0.00 0.00 75 1018.8
20260508061725 11 0 0.0 0.0 0.00 0.00 0.00 76 1019.0
20260508060945 10 0 0.0 0.0 0.00 0.00 0.00 76 1018.8
20260508060207 10 0 0.0 0.0 0.00 0.00 0.00 76 1018.7
20260508055432 10 0 0.0 0.0 0.00 0.00 0.00 77 1018.8
20260508054711 10 0 0.0 0.0 0.00 0.00 0.00 77 1018.7
20260508053951 10 0 0.0 0.0 0.00 0.00 0.00 76 1018.6
20260508052949 10 0 0.0 0.0 0.00 0.00 0.00 78 1018.6
20260508052232 10 0 0.0 0.0 0.00 0.00 0.00 79 1018.5
20260508051514 10 0 0.0 0.0 0.00 0.00 0.00 78 1018.4
20260508050756 10 0 0.0 0.0 0.00 0.00 0.00 79 1018.4
20260508050036 10 0 0.0 0.0 0.00 0.00 0.00 80 1018.4
20260508043845 8 0 0.0 0.0 0.00 0.00 0.00 83 1018.2
20260508043129 8 0 0.0 0.0 0.00 0.00 0.00 84 1018.2
20260508042412 8 0 0.0 0.0 0.00 0.00 0.00 84 1018.2
20260508041653 8 0 0.0 0.0 0.00 0.00 0.00 84 1018.0
20260508040935 9 0 0.0 0.0 0.00 0.00 0.00 84 1018.2
20260508040219 10 0 0.0 0.0 0.00 0.00 0.00 84 1018.0
20260508035501 8 0 0.0 0.0 0.00 0.00 0.00 86 1018.1
20260508034744 8 0 0.0 0.0 0.00 0.00 0.00 86 1018.0
20260508033742 8 0 0.0 0.0 0.00 0.00 0.00 86 1018.0
20260508033023 8 0 0.0 0.0 0.00 0.00 0.00 86 1018.0
20260508032306 8 0 0.0 0.0 0.00 0.00 0.00 86 1018.0
20260508031546 8 0 0.0 0.0 0.00 0.00 0.00 87 1018.0
20260508030829 8 0 0.0 0.0 0.00 0.00 0.00 86 1017.8
20260508030113 8 0 0.0 0.0 0.00 0.00 0.00 86 1017.8
20260508025353 8 0 0.0 0.0 0.00 0.00 0.00 86 1017.8
20260508024636 8 0 0.0 0.0 0.00 0.00 0.00 86 1017.8
20260508023919 8 0 0.0 0.0 0.00 0.00 0.00 86 1017.9
20260508023200 8 0 0.0 0.0 0.00 0.00 0.00 86 1017.8
20260508021018 8 0 0.0 0.0 0.00 0.00 0.00 88 1017.7
20260508020301 8 0 0.0 0.0 0.00 0.00 0.00 88 1017.8
20260508015543 8 0 0.0 0.0 0.00 0.00 0.00 88 1017.6
20260508014542 8 0 0.0 0.0 0.00 0.00 0.00 88 1017.6
20260508013826 8 0 0.0 0.0 0.00 0.00 0.00 88 1017.8
20260508013108 8 0 0.0 0.0 0.00 0.00 0.00 88 1017.7
20260508012351 8 0 0.0 0.0 0.00 0.00 0.00 90 1017.6
20260508011627 8 0 0.0 0.0 0.00 0.00 0.00 90 1017.6
20260508010848 8 0 0.0 0.0 0.00 0.00 0.00 90 1017.5
20260508010105 8 0 0.0 0.0 0.00 0.00 0.00 90 1017.4
20260508005241 8 0 0.0 0.0 0.00 0.00 0.00 89 1017.4
20260508004418 8 0 0.0 0.0 0.00 0.00 0.00 89 1017.4
20260508003551 8 0 0.0 0.0 0.00 0.00 0.00 88 1017.6
20260508002720 8 0 0.0 0.0 0.00 0.00 0.00 87 1017.4
20260508001900 9 0 0.0 0.0 0.00 0.00 0.00 86 1017.6
20260508001040 9 0 0.0 0.0 0.00 0.00 0.00 86 1017.6
20260508000215 9 0 0.0 0.0 0.00 0.00 0.00 85 1017.5
20260507235355 10 0 0.0 0.0 0.00 0.00 0.00 86 1017.6
20260507234300 10 0 0.0 0.0 0.00 0.00 0.00 86 1017.6
20260507233519 10 0 0.0 0.0 0.00 0.00 0.00 86 1017.6
20260507232748 10 0 0.0 0.0 0.00 0.00 0.00 86 1017.6
20260507232022 10 0 0.0 0.0 0.00 0.00 0.00 86 1017.7
20260507231304 10 0 0.0 0.0 0.00 0.00 0.00 86 1017.6
20260507230547 10 0 0.0 0.0 0.00 0.00 0.00 85 1017.8
20260507225828 10 0 0.0 0.0 0.00 0.00 0.00 85 1017.6
20260507225111 10 0 0.0 0.0 0.00 0.00 0.00 86 1017.8
20260507224351 10 0 0.0 0.0 0.00 0.00 0.00 86 1017.7
20260507223634 9 0 0.0 0.0 0.00 0.00 0.00 87 1017.6
20260507222917 9 0 0.0 0.0 0.00 0.00 0.00 88 1017.5
20260507222159 8 0 0.0 0.0 0.00 0.00 0.00 90 1017.4
20260507221442 8 0 0.0 0.0 0.00 0.00 0.00 90 1017.6
20260507220723 8 0 0.0 0.0 0.00 0.00 0.00 90 1017.6
20260507220006 8 0 0.0 0.0 0.00 0.00 0.00 91 1017.6
20260507215003 8 0 0.0 0.0 0.00 0.00 0.00 92 1017.5
20260507214245 8 0 0.0 0.0 0.00 0.00 0.00 92 1017.4
20260507213528 8 0 0.0 0.0 0.00 0.00 0.00 92 1017.4
20260507212812 8 0 0.0 0.0 0.00 0.00 0.00 92 1017.3
20260507212055 8 0 0.0 0.0 0.00 0.00 0.00 92 1017.1
20260507211335 8 0 0.0 0.0 0.00 0.00 0.00 92 1017.0
20260507210617 8 0 0.0 0.0 0.00 0.00 0.00 92 1017.0
20260507205859 9 0 0.0 0.0 0.00 0.00 0.00 92 1017.0
20260507205141 9 0 0.0 0.0 0.00 0.00 0.00 92 1016.9
20260507204423 9 0 0.0 0.0 0.00 0.00 0.00 92 1016.9
20260507203705 10 0 0.0 0.0 0.00 0.00 0.00 92 1016.8
20260507202947 10 0 0.0 0.0 0.00 0.00 0.00 92 1016.7
20260507202228 10 0 0.0 0.0 0.00 0.00 0.00 92 1016.8
20260507201508 10 0 0.0 0.0 0.00 0.00 0.00 92 1016.6
20260507200750 10 0 0.0 0.0 0.00 0.00 0.00 92 1016.5
20260507195747 10 0 0.0 0.0 0.00 0.00 0.00 91 1016.4
20260507193602 11 0 0.0 0.0 0.00 0.00 0.00 86 1016.0
20260507192844 11 0 0.0 0.0 0.00 0.00 0.00 86 1016.0
20260507192126 12 0 0.0 0.0 0.00 0.00 0.00 86 1015.9
20260507191407 12 0 0.0 0.0 0.00 0.00 0.00 84 1015.8
20260507190649 12 0 0.0 0.0 0.00 0.00 0.00 84 1015.6
20260507185928 12 0 0.0 0.0 0.00 0.00 0.00 82 1015.5
20260507185208 12 0 0.0 0.0 0.00 0.00 0.00 82 1015.2
20260507184448 12 0 0.0 0.0 0.00 0.00 0.00 80 1015.2
20260507183728 12 0 0.0 0.0 0.00 0.00 0.00 79 1015.2
20260507181543 12 0 0.0 0.0 0.00 0.00 0.00 76 1014.9
20260507180540 12 0 0.0 0.0 0.00 0.00 0.00 76 1014.8
20260507175820 13 0 0.0 0.0 0.00 0.00 0.00 74 1014.8
20260507175103 13 0 0.0 0.0 0.00 0.00 0.00 74 1014.8
20260507174345 13 0 0.0 0.0 0.00 0.00 0.00 72 1014.6
20260507173626 13 0 0.0 0.0 0.00 0.00 0.00 70 1014.4
20260507172906 13 0 0.0 0.0 0.00 0.00 0.00 70 1014.4
20260507172147 14 0 0.0 0.0 0.00 0.00 0.00 70 1014.4
20260507171426 14 0 0.0 0.0 0.00 0.00 0.00 69 1014.4
20260507170709 15 0 0.0 0.0 0.00 0.00 0.00 66 1014.2
20260507165949 15 0 0.0 0.0 0.00 0.00 0.00 64 1014.2
20260507165229 15 0 0.0 0.0 0.00 0.00 0.00 66 1014.2
20260507164511 15 0 0.0 0.0 0.00 0.00 0.00 64 1014.2
20260507163750 15 0 0.0 0.0 0.00 0.00 0.00 62 1014.1
20260507163030 15 0 0.0 0.0 0.00 0.00 0.00 60 1014.0
20260507162310 15 0 0.0 0.0 0.00 0.00 0.00 60 1014.0
20260507161304 15 0 0.0 0.0 0.00 0.00 0.00 60 1013.8
20260507160545 16 0 0.0 0.0 0.00 0.00 0.00 59 1013.8
20260507155824 16 0 0.0 0.0 0.00 0.00 0.00 56 1013.9
20260507155105 16 0 0.0 0.0 0.00 0.00 0.00 56 1014.4
20260507154344 16 0 0.0 0.0 0.00 0.00 0.00 57 1013.8
20260507153623 16 0 0.0 0.0 0.00 0.00 0.00 55 1013.6
20260507152903 17 0 0.0 0.0 0.00 0.00 0.00 54 1013.6
20260507152144 20 0 0.0 0.0 0.00 0.00 0.00 47 1013.4
20260507151422 20 0 0.0 0.0 0.00 0.00 0.00 49 1013.4
20260507150704 17 0 0.0 0.0 0.00 0.00 0.00 55 1013.4
20260507145943 18 0 0.0 0.0 0.00 0.00 0.00 54 1013.2
20260507145221 19 0 0.0 0.0 0.00 0.00 0.00 50 1013.0
20260507144501 19 0 0.0 0.0 0.00 0.00 0.00 50 1013.1
20260507143742 21 0 0.0 0.0 0.00 0.00 0.00 48 1013.0
20260507143022 18 0 0.0 0.0 0.00 0.00 0.00 51 1013.0
20260507142018 20 0 0.0 0.0 0.00 0.00 0.00 49 1013.0
20260507141257 20 0 0.0 0.0 0.00 0.00 0.00 46 1013.1
20260507140539 21 0 0.0 0.0 0.00 0.00 0.00 47 1013.0